Regional Weather Roundup
Issued by NWS Bismarck, ND

Home | Current Version | Previous Version | Text Only | Print | Product List | Glossary On
Versions: 1 2 3 4 5 6 7 8 9 10 11 12 13 14 15 16 17 18 19 20 21 22 23 24 25 26 27 28 29 30 31 32 33 34 35 36 37 38 39 40 41 42 43 44 45 46 47 48 49 50
000
ASUS43 KBIS 080210
RWRBIS

NWR BROADCAST TEXT
NATIONAL WEATHER SERVICE BISMARCK ND
900 PM CDT TUE JUL 07 2015

NOTE: "FAIR" INDICATES FEW OR NO CLOUDS BELOW 12,000 FEET WITH NO
SIGNIFICANT WEATHER AND/OR OBSTRUCTIONS TO VISIBILITY.


CITY           SKY/WX    TMP DP  RH WIND       PRES   REMARKS
WILLISTON      CLEAR     74  51  44 NE3       29.93F
MINOT          TSTM      58  57  97 N6        29.98R VSB 3/4
MINOT AFB      TSTM      61  61 100 MISG      29.95F
BISMARCK       CLOUDY    69  56  62 SE8       29.98F
DICKINSON      CLOUDY    63  59  87 NE7       29.96S
GARRISON         N/A     70  58  65 S14       29.95F
HETTINGER ARPT MOCLDY    61  56  83 SE14      29.98R
JAMESTOWN      PTCLDY    66  49  54 S8        30.02S
BEACH          FAIR      63  63 100 E7        29.98S
CROSBY         FAIR      66  61  82 S8        29.93F
HARVEY         FAIR      68  57  68 S10       29.97F
HAZEN          LGT RAIN  66  59  77 S12G17    29.97R
LINTON         FAIR      66  59  77 SE9       30.01S
MANDAN         FAIR      66  57  72 SE7       29.99S
OAKES            N/A     59  54  82 SE8       30.05S
STANLEY        FAIR      64  64 100 E6        29.96F
$$

CITY           SKY/WX    TMP DP  RH WIND       PRES   REMARKS
GRAND FORKS    PTCLDY    65  49  56 S7        30.00F
GRAND FORKS AF CLEAR     64  49  56 S8        30.00F
DEVILS LAKE    CLEAR     70  52  52 S9        29.96F
FARGO          CLEAR     66  46  48 S7        30.05S
CANDO          FAIR      64  55  72 S7        29.97F
CAVALIER       FAIR      66  50  55 S5        29.97F
GRAFTON        FAIR      63  52  67 S7        30.00S
GWINNER        FAIR      66  50  55 SE7       30.06S
LANGDON        FAIR      63  55  77 S7        29.98F
ROLLA          FAIR      63  57  82 SW7       29.97F
WALHALLA       FAIR      66  52  59 MISG      29.97S
$$

CITY           SKY/WX    TMP DP  RH WIND       PRES   REMARKS
ABERDEEN       PTCLDY    64  49  57 S8        30.06S
MOBRIDGE       PTCLDY    71  57  61 S17       29.99S
BUFFALO          N/A     69  59  70 NE8       29.89F
RAPID CITY     PTCLDY    67  57  70 SE8       29.99F
GLASGOW        MOCLDY    75  44  33 NW10      29.96R
SIDNEY         CLEAR     73  54  49 CALM      29.94S
WOLF POINT     MOCLDY    75  51  43 W7        29.95R
GLENDIVE       PTCLDY    73  46  38 N9        29.97R
MILES CITY     CLEAR     77  44  30 NE12      29.95S
BAKER          CLEAR     70  56  61 NE14      29.97S
$$

CITY           SKY/WX    TMP DP  RH WIND       PRES   REMARKS
BILLINGS       MOCLDY    72  40  31 N17G28    30.03R
GREAT FALLS    MOSUNNY   66  48  52 NE3       30.09S
REGINA         CLEAR     63  54  72 N21       29.96R SMOKE
ESTEVAN        MOCLDY    68  55  64 S6        29.92F THUNDER
$$



USA.gov is the U.S. government's official web portal to all federal, state and local government web resources and services.